Погода в Порт-Матурин

Маврикий     19°40′50″S   63°25′19″E
темп.,
°C
ветер,
м/с
пор.,
м/с
влажн.,
%
обл.,
%
осадки,
мм/ч
давл.,
гПа
погр.,
м
28 сентября, вт
вт2801:00+22вюв111171100 0.2 10201243
04:00+22вюв101066100 0.4 10201523
07:00+22вюв10106024 0.1 10211636
10:00+22вюв8106978 0.1 10221263
13:00+22вюв9106252 0.2 10201377
16:00+22юв10116899 0.3 10191310
19:00+23вюв11117113 0.6 10201252
22:00+23вюв12126466 0.8 10211597
29 сентября, ср
ср2901:00+23вюв1313637 0.1 10201638
04:00+22в111267100 0.2 10201585
07:00+22в101275100 0.2 10221183
10:00+23в10126498 0.3 10221488
13:00+23вюв10116759 0.0 10201422
16:00+23вюв111168100 0.1 10191432
19:00+22вюв101170100 0.1 10201366
22:00+22в101272100 0.3 10211311
30 сентября, чт
чт3001:00+22в91175100 0.3 10201141
04:00+22в91074100 0.6 10191239
07:00+22в9117597 0.2 10211030
10:00+22вюв9107585 0.3 10211038
13:00+23в9973100 0.1 10191021
16:00+23вюв8974100 0.4 1019951
19:00+23вюв997132 0.2 10201051
22:00+23вюв91069100 0.3 10211380
1 октября, пт
пт101:00+23вюв91074100 0.2 1019965
04:00+23вюв91072100 0.5 10181220
07:00+23вюв91071100 0.3 10201301
10:00+23вюв9107228 0.3 10201082
13:00+23вюв997112 0.1 1018965
16:00+23вюв99718 0.1 10171046
19:00+23вюв91073100 0.1 10191182
22:00+23вюв91073100 0.3 10201156
2 октября, сб
сб201:00+22вюв9107174 0.3 10191013
04:00+22вюв91076100 0.7 1018767
07:00+23вюв9106367 0.3 10191492
10:00+23вюв101067100 0.3 10201149
13:00+23вюв9107092 0.1 10181175
16:00+23вюв10117486 0.4 10181136
19:00+23вюв1112725 0.3 10191333
22:00+23вюв11136935 0.4 10201438